Regional Weather Roundup
Issued by NWS

Home | Current Version | Previous Version | Text Only | Print | Product List | Glossary Off
Versions: 1 2 3 4 5 6 7 8 9 10 11 12 13 14 15 16 17 18 19 20 21 22 23 24 25 26 27 28 29 30 31 32 33 34 35 36 37 38 39 40 41 42 43 44 45 46 47 48 49 50

000
ASUS43 KDMX 242007
RWRIA

WEATHER ROUNDUP FOR IOWA
NATIONAL WEATHER SERVICE DES MOINES IA
300 PM CDT THU JUL 24 2014

NOTE: "FAIR" INDICATES FEW OR NO CLOUDS BELOW 12,000 FEET WITH NO
SIGNIFICANT WEATHER AND/OR OBSTRUCTIONS TO VISIBILITY.

* - THESE STATIONS ARE NOT NWS STATIONS...THUS NOT UNDER NWS
QUALITY CONTROL.  THEY ALSO DO NOT REPORT WEATHER SUCH
AS PRECIPITATION OR FOG.

IAZ001>003-012>014-020>022-031>034-043>046-242100-
   NORTHWEST IOWA

CITY           SKY/WX    TMP DP  RH WIND       PRES   REMARKS
CARROLL *      MOSUNNY   68  64  88 N3        30.14R
CHEROKEE *     CLOUDY    66  63  88 S16G24    29.97F
DENISON *      LGT RAIN  68  63  83 S14G20    30.03F
LE MARS *      SUNNY     73  63  68 S23G33    29.95F
ORANGE CITY *  SUNNY     73  61  64 S21G26    29.96F
SHELDON *      PTSUNNY   68  61  77 S13G24    29.98R
SIOUX CITY     CLOUDY    76  62  62 SE17G25   29.98F
SPENCER        TSTM      66  58  75 SW12      29.99F
STORM LAKE *   SUNNY     64  63  94 S16G33    29.99F
$$

IAZ055>058-069>071-079>083-090>094-242100-
   SOUTHWEST IOWA

CITY           SKY/WX    TMP DP  RH WIND       PRES   REMARKS
ATLANTIC *     SUNNY     75  59  57 SE7G15    30.09R
AUDUBON *      RAIN      73  64  73 CALM      30.13R
CLARINDA *     SUNNY     79  63  57 S15G22    30.05F HX  80
COUNCIL BLFS * SUNNY     79  64  61 SE16      30.03S HX  81
CRESTON *      SUNNY     75  61  60 S12G21    30.10S
HARLAN  *      PTSUNNY   75  61  60 E12       30.14R
LAMONI         CLOUDY    76  58  53 S13G23    30.09S
RED OAK *      PTSUNNY   79  63  57 S13G20    30.05R HX  80
SHENANDOAH *   MOSUNNY   81  63  54 S16G25    30.03F HX  82
$$

IAZ047>049-059>061-072>074-084-242100-
   CENTRAL IOWA

CITY           SKY/WX    TMP DP  RH WIND       PRES   REMARKS
AMES           CLOUDY    76  59  55 S10       30.08F
ANKENY *       MOSUNNY   79  59  50 S9G15     30.08S HX  80
CHARITON *     MOSUNNY   79  59  50 S14       30.09R HX  80
DES MOINES     CLOUDY    80  58  46 S10       30.08S HX  80
GRINNELL*      PTSUNNY   77  57  50 S9        30.09R
KNOXVILLE *    MOSUNNY   79  59  50 S10       30.08R HX  80
MARSHALLTOWN   CLOUDY    77  60  55 S8        30.07F
PELLA *        PTSUNNY   81  61  50 S10       30.09R HX  81
PERRY *          N/A     73  61  64 S5        30.11R
$$

IAZ004>006-015-016-023>025-035-036-242100-
   NORTH CENTRAL IOWA

CITY           SKY/WX    TMP DP  RH WIND       PRES   REMARKS
ALGONA *       SUNNY     75  61  60 S17G23    30.04F
CLARION *      MOSUNNY   75  59  57 S16       30.07S
ESTHERVILLE    CLOUDY    71  59  65 S12       30.03R
FORT DODGE *   CLOUDY    73  59  60 SW10      30.10S
MASON CITY     PTSUNNY   80  60  50 S14       30.06F HX  81
FOREST CITY *  PTSUNNY   77  61  57 S14G21    30.06F
IOWA FALLS *     N/A     75  59  57 S8        30.10R
$$

IAZ007>011-017>019-026>030-037>042-050>054-066-242100-
   NORTHEAST IOWA

CITY           SKY/WX    TMP DP  RH WIND       PRES   REMARKS
CEDAR RAPIDS   MOSUNNY   77  59  53 SE9       30.07F
CHARLES CITY * MOSUNNY   79  57  47 S9        30.07F HX  80
CLINTON *      SUNNY     77  55  47 SW7       30.13F
DECORAH *      MOSUNNY   77  57  50 VRB7      30.07S
DUBUQUE        MOSUNNY   75  58  55 S7        30.09F
MONTICELLO *   CLOUDY    77  61  57 SE9       30.09F
OELWEIN *      MOSUNNY   77  59  53 S10       30.08F
WATERLOO       MOSUNNY   81  56  42 S14       30.06F HX  81
$$

IAZ064-065-067-068-078-242100-
   EAST CENTRAL IOWA

CITY           SKY/WX    TMP DP  RH WIND       PRES   REMARKS
DAVENPORT      MOSUNNY   76  54  46 SE5       30.11F
IOWA CITY      MOSUNNY   76  60  57 SE8       30.09F
MT. PLEASANT * SUNNY     77  55  47 S7        30.10F
MUSCATINE *    PTSUNNY   79  57  47 SE9       30.09F HX  80
QUAD CITIES    MOSUNNY   77  56  48 SE8       30.10F
$$

IAZ062-063-075>077-085>089-095>099-242100-
   SOUTHEAST IOWA

CITY           SKY/WX    TMP DP  RH WIND       PRES   REMARKS
BURLINGTON     SUNNY     78  57  48 MISG      30.10F
FAIRFIELD *    SUNNY     77  59  53 SE12G18   30.08F
FORT MADISON * MOSUNNY   77  57  50 SE6       30.11F
KEOKUK *       SUNNY     75  57  53 SE10      30.10F
OSKALOOSA *      N/A     79  61  53 SE15      30.07F HX  80
CENTERVILLE *  SUNNY     77  63  61 SE9       30.09F
OTTUMWA        PTSUNNY   77  61  57 S12       30.05F
WASHINGTON *   MOSUNNY   79  61  53 SE12      30.08F HX  80
$$

ABBREVIATIONS USED IN REMARKS
   TC - TEMPERATURES IN CELSIUS
  WCI - WIND CHILL INDEX
   HX - HEAT INDEX
  VSB - VISIBILITY
$$



USA.gov is the U.S. government's official web portal to all federal, state and local government web resources and services.